Montrose, CO

7:42 PM MDT on May 22, 2018 (GMT -0600)
Montrose Regional

Weather History for KMTJ - January, 2015

Change the Weather History Date:

Friday, January 16, 2015

  Actual Average Record
Temperature  
Mean Temperature 32 °F 26 °F  
Max Temperature 44 °F 38 °F 48 °F (2000)
Min Temperature 19 °F 14 °F -7 °F (2007)
Degree Days  
Heating Degree Days 33 39  
Month to date heating degree days 595 634  
Since 1 July heating degree days 2852 3242  
Cooling Degree Days 0 0  
Month to date cooling degree days 0 0  
Year to date cooling degree days 0 0  
Moisture  
Dew Point 21 °F    
Average Humidity 61    
Maximum Humidity 88    
Minimum Humidity 33    
Precipitation  
Precipitation 0.00 in 0.03 in 0.15 in (2006)
Month to date precipitation 0.03 0.36  
Year to date precipitation 0.03 0.36  
Sea Level Pressure  
Sea Level Pressure 30.33 in    
Wind  
Wind Speed 5 mph (SE)    
Max Wind Speed 16 mph    
Max Gust Speed 20 mph    
Visibility 10 miles    
Events      
T = Trace of Precipitation, MM = Missing Value Source: NWS Daily Summary

Daily Weather History Graph

Daily Weather History Graph

Search for Another Location

Airport or City:

Astronomy

Jan. 16, 2015 Rise Set
Actual Time 7:27 AM MST 5:15 PM MST
Civil Twilight 6:58 AM MST 5:44 PM MST
Nautical Twilight 6:25 AM MST 6:17 PM MST
Astronomical Twilight 5:54 AM MST 6:48 PM MST
Moon 3:26 AM MST (1/16) 1:53 PM MST (1/16)
Length of Visible Light 10h 46m
Length of Day
9h 48m
Waning Crescent, 18% of the Moon is Illuminated
Jan 16
Waning Crescent
Jan 20
New
Jan 26
First Quarter
Feb 3
Full
Feb 11
Last Quarter

Hourly Weather History & Observations

Time (MST) Temp. Windchill Dew Point Humidity Pressure Visibility Wind Dir Wind Speed Gust Speed Precip Events Conditions
12:53 AM 24.1 °F 15.2 °F 19.9 °F 84% 30.46 in 10.0 mi SSE 8.1 mph - N/A   Clear
1:53 AM 24.1 °F 14.4 °F 19.0 °F 81% 30.45 in 10.0 mi SE 9.2 mph - N/A   Clear
2:53 AM 21.9 °F 12.5 °F 18.0 °F 85% 30.45 in 10.0 mi South 8.1 mph - N/A   Clear
3:53 AM 24.1 °F 18.2 °F 18.0 °F 77% 30.41 in 10.0 mi SE 4.6 mph - N/A   Clear
4:53 AM 25.0 °F 12.6 °F 15.1 °F 66% 30.41 in 10.0 mi East 15.0 mph 18.4 mph N/A   Clear
5:53 AM 21.9 °F 13.4 °F 17.1 °F 82% 30.42 in 10.0 mi SE 6.9 mph - N/A   Clear
6:53 AM 21.9 °F 13.4 °F 16.0 °F 78% 30.44 in 10.0 mi South 6.9 mph - N/A   Clear
7:53 AM 19.9 °F 9.3 °F 16.0 °F 85% 30.45 in 10.0 mi SSE 9.2 mph - N/A   Clear
8:53 AM 27.0 °F 21.6 °F 18.0 °F 69% 30.43 in 10.0 mi SE 4.6 mph - N/A   Clear
9:53 AM 30.9 °F - 19.9 °F 64% 30.40 in 10.0 mi Calm Calm - N/A   Clear
10:53 AM 33.1 °F 30.0 °F 19.9 °F 59% 30.38 in 10.0 mi South 3.5 mph - N/A   Clear
11:53 AM 39.0 °F - 19.9 °F 46% 30.32 in 10.0 mi Calm Calm - N/A   Clear
12:53 PM 42.1 °F - 16.0 °F 35% 30.24 in 10.0 mi Calm Calm - N/A   Clear
1:53 PM 43.0 °F 40.3 °F 21.0 °F 42% 30.18 in 10.0 mi NNW 4.6 mph - N/A   Clear
2:53 PM 43.0 °F 38.8 °F 21.9 °F 43% 30.19 in 10.0 mi NW 6.9 mph - N/A   Clear
3:53 PM 42.1 °F 38.4 °F 21.9 °F 45% 30.19 in 10.0 mi North 5.8 mph - N/A   Clear
4:53 PM 37.9 °F 32.1 °F 21.0 °F 51% 30.22 in 10.0 mi NNW 8.1 mph - N/A   Clear
5:53 PM 36.0 °F - 24.1 °F 62% 30.24 in 10.0 mi Calm Calm - N/A   Overcast
6:53 PM 35.1 °F 31.0 °F 25.0 °F 67% 30.25 in 10.0 mi NNE 4.6 mph - N/A   Overcast
7:53 PM 34.0 °F - 26.1 °F 73% 30.27 in 10.0 mi Calm Calm - N/A   Mostly Cloudy
8:53 PM 34.0 °F 31.0 °F 26.1 °F 73% 30.25 in 10.0 mi NNE 3.5 mph - N/A   Mostly Cloudy
9:53 PM 32.0 °F 27.5 °F 26.1 °F 79% 30.25 in 10.0 mi SE 4.6 mph - N/A   Mostly Cloudy
10:53 PM 30.0 °F - 26.1 °F 85% 30.26 in 10.0 mi Calm Calm - N/A   Clear
11:53 PM 28.0 °F 22.8 °F 25.0 °F 88% 30.25 in 10.0 mi South 4.6 mph - N/A   Clear